Location: ??????
(38.1303°N, 24.0039°E)
Time: 10:53:44
(UTC+00:00)

Cosmos 2221 - Pass Details

Date: 20 June 2021
Orbit: 591 x 616 km, 82.5° (Epoch: 02 August)

Event Time Altitude Azimuth Distance (km) Brightness Sun altitude
Rises 00:22:53 0° 342° (NNW) 2,852 6.6 -22.6°
Reaches altitude 10° 00:25:16 10° 332° (NNW) 1,941 5.5 -22.3°
Enters shadow 00:28:28 30° 287° (WNW) 1,072 3.6 -22.0°
